This is the latest recevied weather packets stored in our database for station/object DM1HF-13. If no packets are shown the sender has not sent any weather packets the latest 10 day(s).
| Time | Temp. | Humidity | Pressure | Rain* | Wind** | Luminosity | Snow |
|---|---|---|---|---|---|---|---|
| 1777453517 | 12.78° C | 31% | 1030.5 hPa | 0 mm | - | 577 W/m² | - |
| 1777453217 | 12.78° C | 31% | 1030.5 hPa | 0 mm | - | 579 W/m² | - |
| 1777452917 | 12.78° C | 32% | 1030.5 hPa | 0 mm | - | 582 W/m² | - |
| 1777452617 | 12.22° C | 31% | 1030.4 hPa | 0 mm | - | 584 W/m² | - |
| 1777452317 | 12.22° C | 31% | 1030.5 hPa | 0 mm | - | 583 W/m² | - |
| 1777452017 | 12.22° C | 32% | 1030.4 hPa | 0 mm | - | 583 W/m² | - |
| 1777451717 | 12.22° C | 33% | 1030.4 hPa | 0 mm | - | 582 W/m² | - |
| 1777451417 | 11.67° C | 33% | 1030.4 hPa | 0 mm | - | 584 W/m² | - |
| 1777451117 | 11.67° C | 34% | 1030.4 hPa | 0 mm | - | 579 W/m² | - |
| 1777450816 | 12.22° C | 35% | 1030.3 hPa | 0 mm | - | 579 W/m² | - |
| 1777450517 | 11.67° C | 35% | 1030.5 hPa | 0 mm | - | 577 W/m² | - |
| 1777450217 | 11.67° C | 37% | 1030.5 hPa | 0 mm | - | 577 W/m² | - |
| 1777449916 | 11.67° C | 38% | 1030.4 hPa | 0 mm | - | 569 W/m² | - |
| 1777449617 | 11.67° C | 38% | 1030.3 hPa | 0 mm | - | 565 W/m² | - |
| 1777449317 | 11.67° C | 38% | 1030.2 hPa | 0 mm | - | 564 W/m² | - |
| 1777449017 | 11.67° C | 37% | 1030.1 hPa | 0 mm | - | 558 W/m² | - |
| 1777448717 | 11.11° C | 39% | 1030 hPa | 0 mm | - | 553 W/m² | - |
| 1777448417 | 11.11° C | 40% | 1030 hPa | 0 mm | - | 547 W/m² | - |
| 1777448117 | 10.56° C | 39% | 1030 hPa | 0 mm | - | 541 W/m² | - |
| 1777447816 | 10.56° C | 39% | 1029.9 hPa | 0 mm | - | 535 W/m² | - |
| 1777447517 | 10.56° C | 41% | 1029.9 hPa | 0 mm | - | 529 W/m² | - |
| 1777447216 | 10° C | 42% | 1029.9 hPa | 0 mm | - | 526 W/m² | - |
| 1777446917 | 10° C | 42% | 1029.9 hPa | 0 mm | - | 514 W/m² | - |
| 1777446616 | 10° C | 43% | 1029.8 hPa | 0 mm | - | 505 W/m² | - |
| 1777446317 | 9.44° C | 45% | 1029.8 hPa | 0 mm | - | 492 W/m² | - |
* Rain latest hour (hover to see other rain measurements)
** Current wind speed in m/s (hover to see current wind gust speed)